THOR ABLESTAR DEB, 2701

Orbit data source: Space-Track

THOR ABLESTAR DEB, 2701 is space debris in LEO originally from a launch on Thu, 24 Jun 1965 UTC launched from the Air Force Western Test Range (AFWTR). Debris objects in space refer to the collection of defunct objects orbiting the Earth. Examples of debris include non-operational satellites, rocket bodies, and fragments generated from explosions, collisions, or faulty payload assembly.

Loading next visibility...
Identifier
2701, 1965-048E
Orbit
LEO
Country
Flag of USUS
Related business
Manufacturer
Unknown
Mission
Spacecraft
Bus & Motor
Unknown
Mass
Unknown
Launch date (UTC)
1965-06-24 (60 years ago)
Launch vehicle
Unknown
Launch site
Air Force Western Test Range (AFWTR)
Object type
Payload
Rocket body
Debris
Shape & HBR
Unknown shape, 0.1 m
Radar Cross Section
Small (<0.1 m²)

Expand to show TLE details & history
Last TLE update: 17 hours ago

TLE from 17 hours ago
0 THOR ABLESTAR DEB
1 02701U 65048E   25286.29064267  .00000394  00000-0  47857-3 0  9992
2 02701  89.8756 290.5759 0061140 256.0256 123.3258 13.63799942987685
Epoch: 2025-10-13T06:58Z
TLE epoch observation values (Epoch: 2025-10-13T06:58:31.526Z)
Latitude
19.9348°
Longitude
163.89389°
Altitude
1,049.532 km
Speed
7.316 km/s
True Right ascension
19h 22m 28s
True Declination
19° 49' 45"
Sunlit
Object was in daylight at epoch
Visualization orbit readout
Latitude
Unknown
Longitude
Unknown
Altitude
Unknown
Speed
Unknown
Apparent Right ascension
Unknown
Apparent Declination
Unknown
Sunlit
N/A
Visualization observer readout
Local Sidereal Time
18:35:51
Azimuth
Unknown
Elevation
Unknown
Doppler factor
Unknown
Orbital elements
Apogee altitude
1,064.17 km
Perigee altitude
973.718 km
Semi-major axis
7,397.081 km
Eccentricity
0.00611
Inclination
89.8756°
RAAN
290.5759°
Arg. of periapsis
256.0256°
True anomaly
123.90875°
Mean anomaly
123.3258°
Eccentric anomaly
123.61752°
Mean motion
3.41156 °/min
Orbital period
105.52 mins
BSTAR
0.00047857
Loading maneuver chart data...
Computing Atmospheric mass density...

Documentation

Showing up to 5 results
|